{"data":{"norad_id":37789,"intl_designator":"2011-044B","name":"NIGERIASAT-2","alt_names":[],"object_type":"PAYLOAD","status":"ACTIVE","operator":null,"country":"NIG","launch_date":"2011-08-17","launch_site_code":"DLS","launch_vehicle":null,"mission":null,"orbit_class":"UNKNOWN","rcs_meters":0.4991,"size_class":null,"mass_kg":null,"dimensions":null,"purposes":[],"wikipedia_slug":null,"has_3d_model":false,"image_url":null,"decayed_at":null,"tle_current":{"epoch":"2026-05-25T05:01:54.771744Z","epoch_age_seconds":50854,"freshness":"FRESH","line1":"1 37789U 11044B   26145.20966171  .00000737  00000+0  12870-3 0  9991","line2":"2 37789  97.8768 123.1530 0029448 193.1210 257.1043 14.70495339787199","mean_motion":14.70495339,"eccentricity":0.0029448,"inclination_deg":97.8768,"raan_deg":123.153,"arg_perigee_deg":193.121,"mean_anomaly_deg":257.1043,"bstar":0.0001287,"rev_number":78719,"period_min":97.926185946245,"perigee_km":638.76281695445,"apogee_km":680.21160851778,"semimajor_km":7037.6242127361,"source":"CELESTRAK","updated_at":"2026-05-25T13:37:55.264562Z"}}}